View from above orbital plane
|
View from above satellite
|
Ground track
|
The orbit data is extracted from the following two-line orbital elements,
1 25544U 98067A 21064.21877449 .00002246 00000-0 48860-4 0 9999
2 25544 51.6450 136.9566 0003228 75.4854 319.0380 15.49042392272483
Epoch (UTC): | 05 March 2021 05:15:02 |
Eccentricity: | 0.0003228 |
inclination: | 51.6450° |
perigee height: | 417 km |
apogee height: | 422 km |
right ascension of ascending node: | 136.9566° |
argument of perigee: | 75.4854° |
revolutions per day: | 15.49042392 |
mean anomaly at epoch: | 319.0380° |
orbit number at epoch: | 27248 |
The dashed part of the orbit path shows where the satellite is in the earth's shadow,
|
|